User: anonymous
Location: Unspecified
(0.0000°N, 0.0000°E)
Time: 05:14:32
(UTC+00:00)
Language:

Tiangong 1 - Orbit

View from above orbital plane
View from above orbital plane
View from above satellite
View from above satellite

Ground track
Ground track

The orbit data is extracted from the following two-line orbital elements,

1 37820U 11053A   14241.00948039  .00111698  00000-0  10687-2 0  3337
2 37820 042.7682 233.0140 0003529 120.1396 240.0337 15.65778049167482
Epoch (UTC): 29 August 2014 00:13:39
Eccentricity: 0.0003529
inclination: 42.7682°
perigee height: 368 km
apogee height: 373 km
right ascension of ascending node: 233.0140°
argument of perigee: 120.1396°
revolutions per day: 15.65778049
mean anomaly at epoch: 240.0337°
orbit number at epoch: 16748

The dashed part of the orbit path shows where the satellite is in the earth's shadow,  

DLR